Weather History for Benton Harbor, MI

Change the Weather History Date:

Wednesday, May 2, 2012

  Actual Average Record
Temperature  
Mean Temperature 70 °F -  
Max Temperature 81 °F 62 °F 87 °F (1959)
Min Temperature 59 °F 42 °F 25 °F (1990)
Cooling Degree Days 4    
Growing Degree Days 20 (Base 50)    
Moisture  
Dew Point 60 °F    
Average Humidity 85    
Maximum Humidity 100    
Minimum Humidity 52    
Precipitation  
Precipitation 0.00 in - - ()
Sea Level Pressure  
Sea Level Pressure 29.85 in    
Wind  
Wind Speed 9 mph (SSE)    
Max Wind Speed 20 mph    
Max Gust Speed 34 mph    
Visibility 6 miles    
Events      
Averages and records for this station are not official NWS values.
T = Trace of Precipitation, MM = Missing Value Source: NWS Daily Summary

Daily Weather History Graph

Daily Weather History Graph

Search for Another Location

Airport:

Trip Planner

Search our weather history database for the weather conditions in past years. The results will help you decide how hot, cold, wet, or windy it might be!

Date:

Astronomy

May. 02, 2012 Rise Set
Actual Time 6:39 AM EDT 8:46 PM EDT
Civil Twilight 6:08 AM EDT 9:17 PM EDT
Nautical Twilight 5:31 AM EDT 9:55 PM EDT
Astronomical Twilight 4:50 AM EDT 10:36 PM EDT
Moon 4:54 PM EDT (5/2) 4:13 AM EDT (5/2)
Length of Visible Light 15h 08m
Length of Day
14h 07m
Waxing Gibbous, 83% of the Moon is Illuminated
May 2
Waxing Gibbous
May 5
Full
May 12
Last Quarter
May 20
New
May 28
First Quarter

Hourly Weather History & Observations

Time (EDT) Temp. Heat Index Dew Point Humidity Pressure Visibility Wind Dir Wind Speed Gust Speed Precip Events Conditions
12:53 AM 60.1 °F - 57.9 °F 93% 29.86 in 7.0 mi SE 8.1 mph - N/A   Overcast
1:42 AM 60.8 °F - 57.2 °F 88% 29.86 in 6.0 mi SE 9.2 mph 16.1 mph N/A   Overcast
1:53 AM 59.0 °F - 57.9 °F 96% 29.86 in 6.0 mi SSE 8.1 mph - N/A   Mostly Cloudy
2:22 AM 59.0 °F - 57.2 °F 94% 29.86 in 5.0 mi SE 5.8 mph - N/A   Scattered Clouds
2:31 AM 59.0 °F - 57.2 °F 94% 29.85 in 5.0 mi SE 5.8 mph - N/A   Mostly Cloudy
2:53 AM 59.0 °F - 57.9 °F 96% 29.85 in 3.0 mi SE 6.9 mph - N/A   Overcast
3:39 AM 59.0 °F - 59.0 °F 100% 29.84 in 2.0 mi SE 8.1 mph - N/A   Overcast
3:53 AM 59.0 °F - 59.0 °F 100% 29.83 in 2.0 mi SE 8.1 mph - N/A   Overcast
4:06 AM 59.0 °F - 59.0 °F 100% 29.83 in 1.5 mi SE 9.2 mph - N/A   Overcast
4:28 AM 59.0 °F - 59.0 °F 100% 29.82 in 1.2 mi SE 9.2 mph - N/A   Overcast
4:53 AM 59.0 °F - 59.0 °F 100% 29.82 in 1.2 mi SSE 9.2 mph - N/A   Overcast
5:09 AM 60.8 °F - 60.8 °F 100% 29.82 in 1.5 mi SE 8.1 mph - N/A   Overcast
5:42 AM 60.8 °F - 60.8 °F 100% 29.82 in 1.5 mi SE 9.2 mph - N/A   Overcast
5:53 AM 60.1 °F - 60.1 °F 100% 29.82 in 1.5 mi SE 8.1 mph - N/A   Overcast
6:14 AM 60.8 °F - 60.8 °F 100% 29.82 in 2.0 mi SE 9.2 mph - N/A   Overcast
6:53 AM 60.1 °F - 60.1 °F 100% 29.82 in 2.5 mi SE 6.9 mph - N/A   Overcast
7:06 AM 60.8 °F - 60.8 °F 100% 29.81 in 1.8 mi SE 10.4 mph - N/A   Overcast
7:14 AM 60.8 °F - 60.8 °F 100% 29.81 in 2.0 mi SE 9.2 mph - N/A   Mostly Cloudy
7:31 AM 60.8 °F - 60.8 °F 100% 29.82 in 2.0 mi SSE 6.9 mph - N/A   Scattered Clouds
7:53 AM 62.1 °F - 61.0 °F 96% 29.82 in 2.0 mi SE 9.2 mph - N/A   Mostly Cloudy
8:26 AM 62.6 °F - 62.6 °F 100% 29.83 in 2.5 mi SSE 10.4 mph - N/A   Mostly Cloudy
8:49 AM 64.4 °F - 62.6 °F 94% 29.83 in 3.0 mi SSE 8.1 mph - N/A   Overcast
8:53 AM 64.9 °F - 63.0 °F 93% 29.83 in 3.0 mi South 8.1 mph - N/A   Overcast
9:53 AM 70.0 °F - 64.0 °F 81% 29.81 in 9.0 mi SSW 11.5 mph - N/A   Scattered Clouds
10:53 AM 73.0 °F - 64.0 °F 73% 29.82 in 10.0 mi SW 19.6 mph 34.5 mph N/A   Clear
11:53 AM 73.9 °F - 64.0 °F 71% 29.80 in 10.0 mi South 16.1 mph 24.2 mph N/A   Clear
12:53 PM 77.0 °F - 64.0 °F 64% 29.83 in 10.0 mi SW 11.5 mph 19.6 mph N/A   Scattered Clouds
1:53 PM 80.1 °F 81.1 °F 61.0 °F 52% 29.84 in 10.0 mi WSW 17.3 mph 26.5 mph N/A   Clear
2:53 PM 75.9 °F - 60.1 °F 58% 29.88 in 10.0 mi WSW 17.3 mph 25.3 mph N/A   Clear
3:53 PM 75.0 °F - 59.0 °F 57% 29.88 in 10.0 mi West 15.0 mph - N/A   Clear
4:53 PM 75.9 °F - 57.0 °F 52% 29.87 in 10.0 mi West 11.5 mph - N/A   Clear
5:53 PM 75.9 °F - 57.9 °F 54% 29.88 in 10.0 mi West 8.1 mph - N/A   Clear
6:53 PM 75.9 °F - 59.0 °F 56% 29.90 in 10.0 mi WSW 8.1 mph - N/A   Clear
7:53 PM 73.0 °F - 57.9 °F 59% 29.92 in 10.0 mi WSW 9.2 mph - N/A   Clear
8:53 PM 70.0 °F - 57.9 °F 65% 29.92 in 10.0 mi Calm Calm - N/A   Scattered Clouds
9:53 PM 66.0 °F - 60.1 °F 81% 29.94 in 10.0 mi Calm Calm - N/A   Mostly Cloudy
10:53 PM 68.0 °F - 60.1 °F 76% 29.94 in 10.0 mi Calm Calm - N/A   Overcast
11:53 PM 64.0 °F - 61.0 °F 90% 29.94 in 10.0 mi ESE 3.5 mph - N/A   Scattered Clouds